Weather in Bolshiye Mordovskiye Poshaty

Russia / Republic of Mordovia     54°39′35″N   43°42′11″E
temp.,
°C
wind,
m/s
gust,
m/s
humid.,
%
clouds,
%
prec.,
mm/h
press.,
hPa
HPBL,
m
3 march, wed
wed300:00−4wnw389675 0.1 1005230
03:00−3nw5109379 0.1 1006554
06:00−5nw61189100 0.1 1007676
09:00−6nw61191100 0.1 1010620
12:00−4nw6987100 0.1 1010697
15:00−4nw6985100 0.1 1011890
18:00−6w388998 0.0 1010204
21:00−5wsw4119582 0.1 1010339
4 march, thu
thu400:00−2w61294100 0.1 1007762
03:00−2wsw61292100 0.3 1005808
06:00−2wsw61395100 0.3 1002768
09:00−1wsw81497100 1.5 1001934
12:000w81397100 0.8 999963
15:000w61298100 1.3 1000840
18:00−2nw2798100 2.3 1000424
21:00−3w1297100 3.1 100064
5 march, fri
fri500:00−4nne1198100 1.2 99821
03:00−4n3597100 2.3 998208
06:00−6nnw3696100 0.6 1000183
09:00−6n4891100 0.7 1003485
12:00−5nnw468688 0.0 1006617
15:00−5nnw358252 0.0 1009661
18:00−10n12890 0.0 101021
21:00−12s12870 0.0 101321
6 march, sat
sat600:00−13s23931 0.0 101323
03:00−13s33967 0.0 101239
06:00−11sw369781 0.1 1012149
09:00−10wnw379591 0.2 1012319
12:00−7nw4787100 0.1 1013767
15:00−7wnw5785100 0.2 10131028
18:00−11nw3990100 0.1 1013323
21:00−16wnw359271 0.1 101586
7 march, sun
sun700:00−16wsw369440 0.0 1015106
03:00−16sw399545 0.0 1014181
06:00−15ssw4109456 0.0 1011247
09:00−9ssw7158578 0.0 1008749
12:00−6sw91684100 0.3 10041124
15:00−4sw101792100 1.0 10001340
18:00−4sw91793100 1.2 9971279
21:00−3wsw81694100 2.3 9961187